Location: Burleson Alternative School
(32.5290°N, 97.3406°W)
Time: 10:16:03
(UTC+00:00)

Vanguard 2 Rocket - Pass Details

Date: 09 November 2025
Orbit: 553 x 3287 km, 32.9° (Epoch: 07 December)

Event Time Altitude Azimuth Distance (km) Brightness Sun altitude
Rises 01:50:57 0° 245° (WSW) 2,857 10.5 -29.3°
Reaches altitude 10° 01:52:54 10° 242° (WSW) 2,077 9.5 -29.8°
Enters shadow 01:56:18 50° 216° (SW) 1,005 7.2 -30.5°
